Starlink 31789

operational
NORAD ID: 59644 Int'l Des: 2024-082 Owner: SPXS Country: US Constellation: starlink
LEOCIRCULAR

Über Starlink 31789

Beschreibung wird geladen...

Live-Position

3D-Globus wird geladen...

Nächste Überflüge

Höhenverlauf

Altitude vs Time

uPlot chart will show altitude changes over time

Zweizeiliger Elementsatz

1 59644U 24082P 25305.59882664 .00031879 00000-0 11624-2 0 9991
2 59644 43.0004 143.0672 0000485 52.7810 307.3086 15.27596569 85425
Epoch: 1. Nov. 2025 • Age: 8 hours

Aktueller Status

Höhe 485.4 km
Geschwindigkeit 7.63 km/s
Subsatellitenpunkt 41.62°N, 167.21°W
Startdatum 3. Mai 2024
Alter 1.4 years
Typ internet

Technische Details

Klassifizierung Payload
Masse 730.00 kg
Trockenmasse 700.00 kg
Gesamtmasse 730.00 kg
Länge 0.30 m
Durchmesser 4.10 m
Spannweite 29.00 m
Form Box + pan
Hersteller SPXS
Bus-Typ Starlink V2M
Phasenstatus In Orbit
Besitzer/Staat SPXS/US

Große Konstellationen

Loading constellations...